Location: *
(90.0000°N, 180.0000°W)
Time: 15:58:06
(UTC+01:00)

Okean O Rocket - Visible Passes

Search period start: 19 January 2017 00:00
Search period end: 29 January 2017 00:00
Orbit: 624 x 645 km, 98.1° (Epoch: 18 January)

Date Brightness Start Highest point End Pass type
(mag) Time Alt. Az. Time Alt. Az. Time Alt. Az.
19 Jan 3.4 01:05:06 10° SSE 01:09:05 31° SW 01:13:02 10° WNW visible
19 Jan 3.4 02:42:34 10° S 02:46:33 31° WSW 02:50:30 10° NW visible
19 Jan 3.4 04:20:01 10° SSW 04:24:00 31° W 04:27:58 10° NNW visible
19 Jan 3.4 05:57:29 10° SW 06:01:28 31° WNW 06:05:25 10° N visible
19 Jan 3.4 07:34:57 10° WSW 07:38:56 31° NW 07:42:53 10° NNE visible
19 Jan 3.4 09:12:25 10° W 09:16:24 31° NNW 09:20:21 10° NE visible
19 Jan 3.4 10:49:53 10° NW 10:53:51 31° N 10:57:49 10° ENE visible
19 Jan 3.4 12:27:20 10° NNW 12:31:19 31° NNE 12:35:17 10° E visible
19 Jan 3.4 14:04:48 10° N 14:08:47 31° NE 14:12:45 10° ESE visible
19 Jan 3.4 15:42:16 10° NNE 15:46:15 31° E 15:50:12 10° SE visible
19 Jan 3.4 17:19:44 10° NE 17:23:43 31° ESE 17:27:40 10° SSE visible
19 Jan 3.4 18:57:12 10° ENE 19:01:10 31° SE 19:05:08 10° SSW visible
19 Jan 3.4 20:34:39 10° E 20:38:38 31° SSE 20:42:36 10° SW visible
19 Jan 3.4 22:12:07 10° ESE 22:16:06 31° S 22:20:03 10° WSW visible
19 Jan 3.4 23:49:35 10° SE 23:53:34 31° SSW 23:57:31 10° W visible
20 Jan 3.4 01:27:03 10° SSE 01:31:01 31° SW 01:34:59 10° WNW visible
20 Jan 3.4 03:04:30 10° S 03:08:29 31° WSW 03:12:27 10° NW visible
20 Jan 3.4 04:41:58 10° SSW 04:45:57 31° W 04:49:54 10° NNW visible
20 Jan 3.4 06:19:26 10° WSW 06:23:25 31° WNW 06:27:22 10° N visible
20 Jan 3.4 07:56:54 10° W 08:00:52 31° NW 08:04:50 10° NNE visible
20 Jan 3.4 09:34:21 10° WNW 09:38:20 31° NNW 09:42:18 10° NE visible
20 Jan 3.4 11:11:50 10° NW 11:15:48 31° NNE 11:19:45 10° ENE visible
20 Jan 3.4 12:49:17 10° NNW 12:53:16 31° NE 12:57:13 10° E visible
20 Jan 3.4 14:26:45 10° N 14:30:43 30° ENE 14:34:41 10° SE visible
20 Jan 3.4 16:04:13 10° NNE 16:08:12 30° E 16:12:09 10° SSE visible
20 Jan 3.4 17:41:41 10° NE 17:45:39 30° ESE 17:49:37 10° S visible
20 Jan 3.4 19:19:09 10° ENE 19:23:07 30° SE 19:27:04 10° SSW visible
20 Jan 3.4 20:56:36 10° E 21:00:35 30° SSE 21:04:32 10° SW visible
20 Jan 3.4 22:34:04 10° ESE 22:38:03 30° S 22:42:00 10° WSW visible
21 Jan 3.4 00:11:32 10° SE 00:15:30 30° SSW 00:19:28 10° W visible
21 Jan 3.4 01:49:00 10° S 01:52:58 30° SW 01:56:55 10° WNW visible
21 Jan 3.4 03:26:28 10° SSW 03:30:26 30° WSW 03:34:23 10° NW visible
21 Jan 3.4 05:03:55 10° SW 05:07:54 30° W 05:11:51 10° NNW visible
21 Jan 3.4 06:41:23 10° WSW 06:45:21 30° NW 06:49:19 10° N visible
21 Jan 3.4 08:18:51 10° W 08:22:49 30° NNW 08:26:46 10° NNE visible
21 Jan 3.4 09:56:19 10° WNW 10:00:17 30° N 10:04:14 10° ENE visible
21 Jan 3.4 11:33:46 10° NW 11:37:44 30° NNE 11:41:42 10° E visible
21 Jan 3.4 13:11:14 10° NNW 13:15:12 30° NE 13:19:10 10° ESE visible
21 Jan 3.4 14:48:42 10° N 14:52:40 30° ENE 14:56:37 10° SE visible
21 Jan 3.4 16:26:10 10° NNE 16:30:08 30° E 16:34:05 10° SSE visible
21 Jan 3.4 18:03:37 10° NE 18:07:35 30° ESE 18:11:32 10° S visible
21 Jan 3.4 19:41:05 10° ENE 19:45:03 30° SE 19:49:01 10° SSW visible
21 Jan 3.4 21:18:33 10° ESE 21:22:31 30° SSE 21:26:28 10° SW visible
21 Jan 3.4 22:56:01 10° SE 22:59:59 30° S 23:03:56 10° WSW visible
22 Jan 3.4 00:33:29 10° SSE 00:37:27 30° SSW 00:41:23 10° W visible
22 Jan 3.4 02:10:56 10° S 02:14:55 30° WSW 02:18:52 10° WNW visible
22 Jan 3.4 03:48:24 10° SSW 03:52:22 30° W 03:56:19 10° NW visible
22 Jan 3.4 05:25:52 10° SW 05:29:50 30° WNW 05:33:47 10° N visible
22 Jan 3.4 07:03:20 10° WSW 07:07:18 30° NW 07:11:14 10° NNE visible
22 Jan 3.4 08:40:48 10° W 08:44:46 30° NNW 08:48:43 10° NE visible
22 Jan 3.4 10:18:15 10° WNW 10:22:13 30° N 10:26:10 10° ENE visible
22 Jan 3.4 11:55:43 10° NW 11:59:41 30° NNE 12:03:38 10° E visible
22 Jan 3.4 13:33:10 10° NNW 13:37:09 30° NE 13:41:05 10° ESE visible
22 Jan 3.4 15:10:39 10° N 15:14:37 30° ENE 15:18:34 10° SE visible
22 Jan 3.4 16:48:06 10° NE 16:52:04 30° E 16:56:01 10° SSE visible
22 Jan 3.4 18:25:34 10° ENE 18:29:32 30° ESE 18:33:29 10° S visible
22 Jan 3.4 20:03:02 10° E 20:07:00 30° SE 20:10:56 10° SSW visible
22 Jan 3.4 21:40:30 10° ESE 21:44:28 30° S 21:48:25 10° SW visible
22 Jan 3.4 23:17:57 10° SE 23:21:56 30° SSW 23:25:52 10° WSW visible
23 Jan 3.4 00:55:25 10° SSE 00:59:24 30° SW 01:03:20 10° WNW visible
23 Jan 3.4 02:32:53 10° S 02:36:51 30° WSW 02:40:47 10° NW visible
23 Jan 3.4 04:10:21 10° SSW 04:14:19 30° W 04:18:16 10° NNW visible
23 Jan 3.4 05:47:49 10° SW 05:51:47 30° WNW 05:55:43 10° N visible
23 Jan 3.4 07:25:16 10° WSW 07:29:15 30° NW 07:33:11 10° NNE visible
23 Jan 3.4 09:02:44 10° W 09:06:42 30° NNW 09:10:38 10° NE visible
23 Jan 3.4 10:40:12 10° WNW 10:44:10 30° N 10:48:07 10° ENE visible
23 Jan 3.4 12:17:40 10° NNW 12:21:38 30° NNE 12:25:34 10° E visible
23 Jan 3.4 13:55:08 10° N 13:59:05 30° NE 14:03:02 10° ESE visible
23 Jan 3.4 15:32:35 10° NNE 15:36:33 30° ENE 15:40:29 10° SE visible
23 Jan 3.4 17:10:03 10° NE 17:14:01 30° ESE 17:17:57 10° SSE visible
23 Jan 3.4 18:47:31 10° ENE 18:51:29 30° SE 18:55:25 10° S visible
23 Jan 3.4 20:24:59 10° E 20:28:56 30° SSE 20:32:53 10° SW visible
23 Jan 3.4 22:02:26 10° ESE 22:06:24 30° S 22:10:21 10° WSW visible
23 Jan 3.4 23:39:54 10° SE 23:43:52 30° SSW 23:47:49 10° W visible
24 Jan 3.4 01:17:22 10° SSE 01:21:20 30° SW 01:25:16 10° WNW visible
24 Jan 3.4 02:54:50 10° S 02:58:48 30° WSW 03:02:44 10° NW visible
24 Jan 3.4 04:32:18 10° SSW 04:36:15 30° W 04:40:12 10° NNW visible
24 Jan 3.4 06:09:45 10° SW 06:13:43 30° WNW 06:17:40 10° N visible
24 Jan 3.4 07:47:13 10° W 07:51:11 30° NW 07:55:07 10° NNE visible
24 Jan 3.4 09:24:41 10° WNW 09:28:39 30° NNW 09:32:35 10° NE visible
24 Jan 3.4 11:02:09 10° NW 11:06:06 30° N 11:10:03 10° ENE visible
24 Jan 3.4 12:39:36 10° NNW 12:43:34 30° NE 12:47:31 10° E visible
24 Jan 3.4 14:17:04 10° N 14:21:02 30° ENE 14:24:58 10° ESE visible
24 Jan 3.4 15:54:32 10° NNE 15:58:30 30° E 16:02:26 10° SE visible
24 Jan 3.4 17:32:00 10° NE 17:35:57 30° ESE 17:39:54 10° S visible
24 Jan 3.4 19:09:27 10° ENE 19:13:25 30° SE 19:17:21 10° SSW visible
24 Jan 3.4 20:46:55 10° E 20:50:53 30° SSE 20:54:49 10° SW visible
24 Jan 3.4 22:24:23 10° ESE 22:28:21 30° S 22:32:17 10° WSW visible
25 Jan 3.4 00:01:51 10° SE 00:05:49 30° SSW 00:09:45 10° W visible
25 Jan 3.4 01:39:18 10° SSE 01:43:17 30° SW 01:47:12 10° WNW visible
25 Jan 3.4 03:16:47 10° SSW 03:20:44 30° WSW 03:24:40 10° NW visible
25 Jan 3.4 04:54:14 10° SW 04:58:12 30° W 05:02:08 10° NNW visible
25 Jan 3.4 06:31:42 10° WSW 06:35:40 30° WNW 06:39:36 10° N visible
25 Jan 3.4 08:09:10 10° W 08:13:08 30° NNW 08:17:04 10° NNE visible
25 Jan 3.4 09:46:38 10° WNW 09:50:35 30° N 09:54:32 10° NE visible
25 Jan 3.4 11:24:06 10° NW 11:28:03 30° NNE 11:31:59 10° ENE visible
25 Jan 3.4 13:01:33 10° NNW 13:05:31 30° NE 13:09:27 10° ESE visible
25 Jan 3.4 14:39:01 10° N 14:42:59 30° ENE 14:46:55 10° SE visible
25 Jan 3.4 16:16:29 10° NNE 16:20:26 30° E 16:24:22 10° SSE visible
25 Jan 3.4 17:53:57 10° NE 17:57:54 30° ESE 18:01:50 10° S visible
25 Jan 3.4 19:31:24 10° ENE 19:35:22 30° SE 19:39:18 10° SSW visible
25 Jan 3.4 21:08:52 10° E 21:12:49 30° SSE 21:16:46 10° SW visible
25 Jan 3.4 22:46:20 10° SE 22:50:17 30° S 22:54:13 10° WSW visible
26 Jan 3.4 00:23:48 10° SSE 00:27:45 30° SSW 00:31:41 10° W visible
26 Jan 3.4 02:01:16 10° S 02:05:13 30° SW 02:09:09 10° WNW visible
26 Jan 3.4 03:38:43 10° SSW 03:42:40 30° W 03:46:36 10° NW visible
26 Jan 3.4 05:16:11 10° SW 05:20:08 30° WNW 05:24:04 10° NNW visible
26 Jan 3.4 06:53:39 10° WSW 06:57:36 30° NW 07:01:32 10° N visible
26 Jan 3.4 08:31:07 10° W 08:35:04 30° NNW 08:39:00 10° NE visible
26 Jan 3.4 10:08:34 10° WNW 10:12:31 30° N 10:16:27 10° ENE visible
26 Jan 3.4 11:46:02 10° NW 11:49:59 30° NNE 11:53:55 10° E visible
26 Jan 3.4 13:23:30 10° NNW 13:27:27 30° NE 13:31:23 10° ESE visible
26 Jan 3.4 15:00:58 10° N 15:04:55 30° ENE 15:08:51 10° SE visible
26 Jan 3.4 16:38:25 10° NNE 16:42:22 30° E 16:46:18 10° SSE visible
26 Jan 3.4 18:15:53 10° NE 18:19:50 30° ESE 18:23:47 10° S visible
26 Jan 3.4 19:53:21 10° E 19:57:18 30° SE 20:01:14 10° SSW visible
26 Jan 3.4 21:30:49 10° ESE 21:34:46 30° SSE 21:38:42 10° SW visible
26 Jan 3.4 23:08:17 10° SE 23:12:14 30° SSW 23:16:09 10° WSW visible
27 Jan 3.4 00:45:44 10° SSE 00:49:42 30° SW 00:53:38 10° W visible
27 Jan 3.4 02:23:12 10° S 02:27:09 30° WSW 02:31:05 10° WNW visible
27 Jan 3.4 04:00:40 10° SSW 04:04:37 30° W 04:08:33 10° NNW visible
27 Jan 3.4 05:38:07 10° SW 05:42:05 30° WNW 05:46:00 10° N visible
27 Jan 3.4 07:15:36 10° WSW 07:19:33 30° NW 07:23:28 10° NNE visible
27 Jan 3.4 08:53:03 10° W 08:57:00 30° NNW 09:00:56 10° NE visible
27 Jan 3.4 10:30:31 10° WNW 10:34:28 30° N 10:38:24 10° ENE visible
27 Jan 3.4 12:07:59 10° NW 12:11:56 30° NNE 12:15:51 10° E visible
27 Jan 3.4 13:45:27 10° NNW 13:49:24 30° NE 13:53:19 10° ESE visible
27 Jan 3.4 15:22:54 10° NNE 15:26:51 30° ENE 15:30:47 10° SE visible
27 Jan 3.4 17:00:22 10° NE 17:04:20 30° E 17:08:15 10° SSE visible
27 Jan 3.4 18:37:50 10° ENE 18:41:47 30° SE 18:45:42 10° S visible
27 Jan 3.4 20:15:18 10° E 20:19:15 30° SSE 20:23:10 10° SSW visible
27 Jan 3.4 21:52:45 10° ESE 21:56:42 30° S 22:00:38 10° SW visible
27 Jan 3.4 23:30:13 10° SE 23:34:10 30° SSW 23:38:06 10° W visible
28 Jan 3.4 01:07:41 10° SSE 01:11:38 30° SW 01:15:33 10° WNW visible
28 Jan 3.4 02:45:09 10° S 02:49:06 30° WSW 02:53:01 10° NW visible
28 Jan 3.4 04:22:37 10° SSW 04:26:34 30° W 04:30:29 10° NNW visible
28 Jan 3.4 06:00:05 10° SW 06:04:01 30° WNW 06:07:57 10° N visible
28 Jan 3.4 07:37:32 10° WSW 07:41:29 30° NW 07:45:25 10° NNE visible
28 Jan 3.4 09:15:00 10° W 09:18:56 30° NNW 09:22:52 10° NE visible
28 Jan 3.4 10:52:28 10° NW 10:56:25 30° N 11:00:20 10° ENE visible
28 Jan 3.4 12:29:56 10° NNW 12:33:52 30° NNE 12:37:48 10° E visible
28 Jan 3.4 14:07:23 10° N 14:11:20 30° ENE 14:15:16 10° ESE visible
28 Jan 3.4 15:44:51 10° NNE 15:48:48 30° E 15:52:44 10° SE visible
28 Jan 3.4 17:22:19 10° NE 17:26:16 30° ESE 17:30:11 10° SSE visible
28 Jan 3.4 18:59:47 10° ENE 19:03:43 30° SE 19:07:39 10° SSW visible
28 Jan 3.4 20:37:14 10° E 20:41:11 30° SSE 20:45:07 10° SW visible
28 Jan 3.4 22:14:42 10° ESE 22:18:39 30° S 22:22:35 10° WSW visible
